Terminal Aerodrome Forecast
Issued by NWS State College, PA

Home | Current Version | Previous Version | Text Only | Print | Product List | Glossary On
Versions: 1 2 3 4 5 6 7 8 9 10 11 12 13 14 15 16 17 18 19 20 21 22 23 24 25 26 27 28 29 30 31 32 33 34 35 36 37 38 39 40 41 42 43 44 45 46 47 48 49 50
000
FTUS41 KCTP 050151 AAA
TAFMDT
TAF AMD
KMDT 050151Z 0502/0524 31007KT 6SM -RA BR SCT030 OVC050
     FM050300 31006KT 3SM -RASN BR OVC025
     FM050500 31006KT 1SM -SN BR BKN005 OVC015
     FM051300 33009KT 5SM BR OVC007
     FM052000 33008KT P6SM OVC050=

USA.gov is the U.S. government's official web portal to all federal, state and local government web resources and services.